Previsão horária em Centralnyy

Hoje, 27 Julho, Terça-feira

Tempo Temperatura Precipitação Vento Pressão Humidade
00:00 +20°C° 0.3 mm 1 m/s 738 mmHg 98%
01:00 +18°C° 0 mm 2 m/s 738 mmHg 98%
02:00 +18°C° 0 mm 2 m/s 738 mmHg 98%
03:00 +18°C° 0 mm 3 m/s 738 mmHg 98%
04:00 +17°C° 0 mm 3 m/s 739 mmHg 98%
05:00 +16°C° 0 mm 3 m/s 739 mmHg 97%
06:00 +14°C° 0 mm 3 m/s 740 mmHg 97%
07:00 +14°C° 0.1 mm 3 m/s 740 mmHg 97%
08:00 +14°C° 0.1 mm 3 m/s 740 mmHg 97%
09:00 +13°C° 0.1 mm 3 m/s 741 mmHg 96%
10:00 +13°C° 0.1 mm 3 m/s 741 mmHg 95%
11:00 +13°C° 0.1 mm 3 m/s 741 mmHg 95%
12:00 +13°C° 0.1 mm 3 m/s 742 mmHg 94%
13:00 +13°C° 0.1 mm 3 m/s 742 mmHg 93%
14:00 +13°C° 0.1 mm 3 m/s 743 mmHg 93%
15:00 +13°C° 0.1 mm 3 m/s 743 mmHg 93%
16:00 +13°C° 0.1 mm 3 m/s 744 mmHg 93%
17:00 +14°C° 0.1 mm 2 m/s 744 mmHg 93%
18:00 +14°C° 0.1 mm 2 m/s 744 mmHg 93%
19:00 +13°C° 0.1 mm 2 m/s 745 mmHg 94%
20:00 +13°C° 0.1 mm 2 m/s 745 mmHg 94%
21:00 +13°C° 0.1 mm 2 m/s 745 mmHg 95%
22:00 +12°C° 0 mm 2 m/s 745 mmHg 95%
23:00 +10°C° 0 mm 2 m/s 746 mmHg 95%

Amanhã, 28 Julho, Quarta-feira

Tempo Temperatura Precipitação Vento Pressão Humidade
00:00 +10°C° 0 mm 2 m/s 746 mmHg 95%
01:00 +9°C° 0 mm 2 m/s 746 mmHg 94%
02:00 +10°C° 0 mm 1 m/s 746 mmHg 93%
03:00 +10°C° 0 mm 1 m/s 746 mmHg 92%
04:00 +11°C° 0 mm 1 m/s 747 mmHg 91%
05:00 +11°C° 0 mm 1 m/s 747 mmHg 90%
06:00 +12°C° 0 mm 1 m/s 747 mmHg 90%
07:00 +12°C° 0 mm 1 m/s 747 mmHg 88%
08:00 +13°C° 0 mm 1 m/s 747 mmHg 86%
09:00 +14°C° 0 mm 1 m/s 748 mmHg 85%
10:00 +14°C° 0.1 mm 1 m/s 748 mmHg 81%
11:00 +15°C° 0.1 mm 1 m/s 748 mmHg 78%
12:00 +15°C° 0.1 mm 1 m/s 748 mmHg 74%
13:00 +16°C° 0 mm 1 m/s 748 mmHg 67%
14:00 +18°C° 0 mm 1 m/s 748 mmHg 61%
15:00 +19°C° 0 mm 1 m/s 748 mmHg 54%
16:00 +19°C° 0 mm 1 m/s 748 mmHg 53%
17:00 +17°C° 0 mm 0 m/s 748 mmHg 53%
18:00 +17°C° 0 mm 0 m/s 748 mmHg 52%
19:00 +15°C° 0 mm 0 m/s 748 mmHg 59%
20:00 +14°C° 0 mm 0 m/s 748 mmHg 66%
21:00 +13°C° 0 mm 1 m/s 748 mmHg 73%
22:00 +13°C° 0 mm 1 m/s 748 mmHg 75%
23:00 +12°C° 0 mm 1 m/s 748 mmHg 76%

Depois de amanhã, 29 Julho, Quinta-feira

Tempo Temperatura Precipitação Vento Pressão Humidade
00:00 +12°C° 0 mm 1 m/s 747 mmHg 78%
01:00 +11°C° 0 mm 0 m/s 747 mmHg 78%
02:00 +11°C° 0 mm 0 m/s 747 mmHg 79%
03:00 +10°C° 0 mm 0 m/s 747 mmHg 79%
04:00 +11°C° 0 mm 0 m/s 747 mmHg 78%
05:00 +13°C° 0 mm 1 m/s 747 mmHg 77%
06:00 +13°C° 0 mm 1 m/s 747 mmHg 75%
07:00 +14°C° 0 mm 1 m/s 747 mmHg 72%
08:00 +15°C° 0 mm 1 m/s 747 mmHg 68%
09:00 +16°C° 0 mm 1 m/s 747 mmHg 64%
10:00 +19°C° 0 mm 1 m/s 747 mmHg 58%
11:00 +19°C° 0 mm 2 m/s 746 mmHg 51%
12:00 +21°C° 0 mm 2 m/s 746 mmHg 45%
13:00 +21°C° 0 mm 2 m/s 746 mmHg 46%
14:00 +20°C° 0 mm 2 m/s 746 mmHg 47%
15:00 +20°C° 0 mm 2 m/s 746 mmHg 49%
16:00 +20°C° 0 mm 2 m/s 746 mmHg 51%
17:00 +20°C° 0 mm 1 m/s 746 mmHg 54%
18:00 +20°C° 0 mm 1 m/s 746 mmHg 56%
19:00 +18°C° 0 mm 2 m/s 746 mmHg 61%
20:00 +17°C° 0 mm 2 m/s 746 mmHg 65%
21:00 +16°C° 0 mm 2 m/s 746 mmHg 70%
22:00 +15°C° 0 mm 2 m/s 746 mmHg 78%
23:00 +14°C° 0 mm 2 m/s 746 mmHg 85%

30 Julho, Sexta-feira

Tempo Temperatura Precipitação Vento Pressão Humidade
00:00 +13°C° 0 mm 2 m/s 746 mmHg 93%
01:00 +12°C° 0 mm 2 m/s 746 mmHg 94%
02:00 +12°C° 0 mm 2 m/s 747 mmHg 94%
03:00 +10°C° 0 mm 2 m/s 747 mmHg 94%
04:00 +10°C° 0 mm 2 m/s 747 mmHg 93%
05:00 +10°C° 0 mm 2 m/s 747 mmHg 91%
06:00 +10°C° 0 mm 2 m/s 748 mmHg 90%
07:00 +13°C° 0 mm 2 m/s 748 mmHg 80%
08:00 +14°C° 0 mm 3 m/s 748 mmHg 70%
09:00 +17°C° 0 mm 3 m/s 748 mmHg 60%
10:00 +18°C° 0 mm 3 m/s 748 mmHg 54%
11:00 +19°C° 0 mm 3 m/s 748 mmHg 48%
12:00 +20°C° 0 mm 4 m/s 749 mmHg 41%
13:00 +19°C° 0 mm 3 m/s 749 mmHg 45%
14:00 +18°C° 0 mm 3 m/s 749 mmHg 49%
15:00 +18°C° 0 mm 3 m/s 749 mmHg 52%
16:00 +18°C° 0 mm 2 m/s 749 mmHg 53%
17:00 +18°C° 0 mm 2 m/s 749 mmHg 54%
18:00 +18°C° 0 mm 2 m/s 749 mmHg 55%
19:00 +16°C° 0 mm 2 m/s 750 mmHg 62%
20:00 +15°C° 0 mm 2 m/s 750 mmHg 69%
21:00 +13°C° 0 mm 2 m/s 750 mmHg 75%
22:00 +14°C° 0 mm 2 m/s 750 mmHg 73%
23:00 +14°C° 0 mm 2 m/s 750 mmHg 71%

31 Julho, Sábado

Tempo Temperatura Precipitação Vento Pressão Humidade
00:00 +13°C° 0 mm 3 m/s 750 mmHg 69%
01:00 +12°C° 0 mm 3 m/s 750 mmHg 71%
02:00 +12°C° 0 mm 3 m/s 750 mmHg 73%
03:00 +11°C° 0 mm 3 m/s 750 mmHg 76%
04:00 +12°C° 0 mm 3 m/s 750 mmHg 75%
05:00 +12°C° 0 mm 3 m/s 750 mmHg 73%
06:00 +13°C° 0 mm 3 m/s 750 mmHg 72%
07:00 +16°C° 0 mm 3 m/s 750 mmHg 66%
08:00 +17°C° 0 mm 4 m/s 750 mmHg 60%
09:00 +19°C° 0 mm 4 m/s 750 mmHg 54%
10:00 +21°C° 0 mm 4 m/s 750 mmHg 50%
11:00 +22°C° 0 mm 4 m/s 749 mmHg 45%
12:00 +23°C° 0 mm 5 m/s 749 mmHg 41%
13:00 +23°C° 0 mm 4 m/s 749 mmHg 42%
14:00 +23°C° 0 mm 4 m/s 749 mmHg 43%
15:00 +23°C° 0 mm 4 m/s 749 mmHg 44%
16:00 +21°C° 0.1 mm 3 m/s 749 mmHg 55%
17:00 +19°C° 0.1 mm 3 m/s 749 mmHg 67%
18:00 +17°C° 0.1 mm 3 m/s 750 mmHg 78%
19:00 +16°C° 0.3 mm 3 m/s 750 mmHg 83%
20:00 +16°C° 0.3 mm 3 m/s 750 mmHg 88%
21:00 +14°C° 0.3 mm 3 m/s 750 mmHg 93%
22:00 +15°C° 0 mm 2 m/s 750 mmHg 94%
23:00 +15°C° 0 mm 2 m/s 750 mmHg 94%

1 Agosto, Domingo

Tempo Temperatura Precipitação Vento Pressão Humidade
00:00 +15°C° 0 mm 1 m/s 750 mmHg 95%
01:00 +14°C° 0 mm 1 m/s 750 mmHg 95%
02:00 +14°C° 0 mm 1 m/s 750 mmHg 96%
03:00 +13°C° 0 mm 1 m/s 750 mmHg 97%
04:00 +14°C° 0 mm 1 m/s 750 mmHg 96%
05:00 +14°C° 0 mm 1 m/s 750 mmHg 95%
06:00 +14°C° 0 mm 1 m/s 751 mmHg 94%
07:00 +15°C° 0 mm 0 m/s 751 mmHg 87%
08:00 +17°C° 0 mm 0 m/s 751 mmHg 79%
09:00 +18°C° 0 mm 0 m/s 751 mmHg 72%
10:00 +20°C° 0 mm 0 m/s 751 mmHg 66%
11:00 +23°C° 0 mm 1 m/s 750 mmHg 59%
12:00 +25°C° 0 mm 1 m/s 750 mmHg 53%
13:00 +25°C° 0 mm 1 m/s 750 mmHg 51%
14:00 +25°C° 0 mm 1 m/s 750 mmHg 50%
15:00 +26°C° 0 mm 1 m/s 750 mmHg 49%
16:00 +25°C° 0 mm 1 m/s 749 mmHg 53%
17:00 +24°C° 0 mm 1 m/s 749 mmHg 58%
18:00 +24°C° 0 mm 1 m/s 749 mmHg 63%
19:00 +23°C° 0 mm 1 m/s 749 mmHg 65%
20:00 +22°C° 0 mm 1 m/s 749 mmHg 67%
21:00 +20°C° 0 mm 2 m/s 749 mmHg 70%
22:00 +20°C° 0 mm 1 m/s 749 mmHg 71%
23:00 +20°C° 0 mm 1 m/s 749 mmHg 73%
Mostrar mais

Necessitamos do seu Consentimento

A Meteoprog e os seus Fornecedores de Serviços podem armazenar e aceder a dados pessoais como cookies, identificadores do dispositivo ou outras tecnologias semelhantes existentes no seu dispositivo e processar estes dados para personalizar conteúdos e anúncios, assim como funcionalidades nas redes sociais e análise de tráfego.

  • Armazenar e/ou aceder a informações no seu dispositivo

    Os cookies, identificadores do dispositivo ou outras informações podem ser armazenados ou acedidos no seu dispositivo, para os fins acima indicados.

  • Anúncios e conteúdos personalizados, medição de anúncios e conteúdos, dados sobre o público-alvo e desenvolvimento de produtos

    Os anúncios e os conteúdos podem ser personalizados com base num perfil. Podem ser adicionados dados adicionais para uma maior personalização dos anúncios e dos conteúdos. A eficácia dos anúncios e dos conteúdos pode ser medida. Podem ser obtidas informações sobre o público que visualizou os anúncios e os conteúdos. Estes dados podem ser usados para desenvolver ou melhorar sistemas, softwares ou a experiência do utilizador.

Ao clicar em "Eu concordo”, permitirá o uso de cookies, identificadores do dispositivo e web beacons mencionados ou outras tecnologias semelhantes. As configurações do navegador do seu dispositivo podem ser alteradas.

Para certos fins, podem ser invocados interesses legítimos ao invés de consentimento. Pode ler mais informação sobre este assunto na nossa Política de Privacidade e Cookies.